FW0338 Weather Reports


Display with metric or nautical units.
time (UTC)temp
F
wind
direction
speed
MPH
gust
MPH
rain 1hr
in
rain 24hr
in
rain mn
in
humidity
%
barometer
mb
20260510093102 66 190 0.0 0.0 0.00 0.51 0.00 99 1011.7
20260510092602 66 190 0.0 0.0 0.00 0.51 0.00 99 1011.5
20260510092103 66 190 0.0 0.0 0.00 0.51 0.00 99 1011.4
20260510091603 66 190 0.0 0.0 0.00 0.51 0.00 99 1011.4
20260510091323 66 190 0.0 0.0 0.00 0.51 0.00 99 1011.3
20260510090604 66 190 0.0 0.0 0.00 0.51 0.00 99 1011.3
20260510090104 66 190 0.0 0.0 0.00 0.51 0.00 99 1011.1
20260510085603 66 190 0.0 0.0 0.00 0.51 0.00 99 1011.3
20260510085104 66 190 0.0 0.0 0.00 0.51 0.00 99 1011.2
20260510084603 66 190 0.0 0.0 0.00 0.51 0.00 99 1011.2
20260510084103 66 190 0.0 0.0 0.00 0.51 0.00 99 1011.3
20260510083603 66 190 0.0 0.0 0.00 0.51 0.00 99 1011.2
20260510083103 66 190 0.0 0.0 0.00 0.51 0.00 99 1011.1
20260510082603 66 190 0.0 0.0 0.00 0.51 0.00 99 1011.1
20260510082100 67 190 0.0 0.0 0.00 0.51 0.00 99 1011.1
20260510081602 67 190 0.0 0.0 0.00 0.51 0.00 99 1011.2
20260510081101 67 190 0.0 0.0 0.00 0.51 0.00 99 1011.1
20260510080601 67 190 0.0 0.0 0.00 0.52 0.00 99 1011.2
20260510075601 67 190 0.0 0.0 0.00 0.53 0.00 99 1011.3
20260510075101 67 190 0.0 0.0 0.00 0.54 0.00 99 1011.3
20260510074601 67 190 0.0 0.0 0.00 0.54 0.00 99 1011.3
20260510074101 67 190 0.0 0.0 0.00 0.56 0.00 99 1011.4
20260510073827 67 190 0.0 0.0 0.00 0.56 0.00 99 1011.3
20260510073322 67 190 0.0 0.0 0.00 0.56 0.00 99 1011.2
20260510072601 67 190 0.0 0.0 0.00 0.56 0.00 99 1011.1
20260510072322 67 190 0.0 0.0 0.00 0.56 0.00 99 1011.2
20260510071600 67 190 0.0 0.0 0.00 0.56 0.00 99 1011.1
20260510071104 67 190 0.0 0.0 0.00 0.56 0.00 99 1011.1
20260510070604 67 190 0.0 0.0 0.00 0.56 0.00 99 1011.0
20260510070321 67 190 0.0 0.0 0.00 0.56 0.00 99 1011.1
20260510065603 67 190 0.0 0.0 0.00 0.56 0.00 99 1011.2
20260510065103 67 190 0.0 0.0 0.00 0.56 0.00 99 1011.2
20260510064603 67 190 0.0 0.0 0.00 0.56 0.00 99 1011.1
20260510064103 67 190 0.0 0.0 0.00 0.56 0.00 99 1011.2
20260510063603 67 190 0.0 0.0 0.00 0.56 0.00 99 1011.0
20260510063330 67 190 0.0 0.0 0.00 0.56 0.00 99 1011.1
20260510062603 67 190 0.0 0.0 0.00 0.56 0.00 99 1011.1
20260510062323 67 190 0.0 0.0 0.00 0.56 0.00 99 1011.1
20260510061603 67 190 0.0 0.0 0.00 0.56 0.00 99 1010.9
20260510061103 67 190 0.0 0.0 0.00 0.56 0.00 99 1011.1
20260510060604 67 190 0.0 0.0 0.00 0.56 0.00 99 1011.1
20260510055828 67 190 0.0 0.0 0.00 0.56 0.00 99 1011.4
20260510055103 67 190 0.0 0.0 0.00 0.56 0.00 99 1011.1
20260510054603 67 190 0.0 0.0 0.00 0.56 0.00 99 1011.1
20260510054326 67 190 0.0 0.0 0.00 0.56 0.00 99 1011.1
20260510053830 67 190 0.0 0.0 0.00 0.56 0.00 99 1011.0
20260510053103 67 190 0.0 0.0 0.00 0.56 0.00 99 1011.1
20260510052603 67 190 0.0 0.0 0.00 0.56 0.00 99 1010.9
20260510052103 67 190 0.0 0.0 0.00 0.56 0.00 99 1010.9
20260510051603 67 190 0.0 0.0 0.00 0.56 0.00 99 1010.9
20260510051103 67 190 0.0 0.0 0.00 0.56 0.00 99 1011.1
20260510050604 67 190 0.0 0.0 0.00 0.57 0.00 99 1011.1
20260510050327 67 190 0.0 0.0 0.00 0.57 0.00 98 1011.1
20260510045824 67 190 0.0 0.0 0.00 0.57 0.57 98 1011.1
20260510045325 67 190 0.0 0.0 0.00 0.57 0.57 98 1011.1
20260510044603 67 190 0.0 0.0 0.00 0.57 0.57 99 1011.3
20260510044103 67 190 0.0 0.0 0.00 0.58 0.57 99 1011.5
20260510043604 67 190 0.0 0.0 0.00 0.59 0.57 98 1011.5
20260510043058 67 190 0.0 0.0 0.00 0.59 0.57 98 1011.3
20260510043023 67 190 0.0 0.0 0.00 0.59 0.57 98 1011.3
20260510042035 67 190 0.0 0.0 0.00 0.60 0.57 98 1011.3
20260510041530 67 190 0.0 1.0 0.00 0.60 0.57 98 1011.3
20260510041029 67 190 0.0 1.0 0.00 0.60 0.57 98 1011.4
20260510040531 67 190 0.0 0.0 0.00 0.60 0.57 98 1011.5
20260510040032 67 190 0.0 0.0 0.00 0.60 0.57 98 1011.5
20260510035532 67 190 0.0 0.0 0.00 0.60 0.57 98 1011.4
20260510035032 68 190 0.0 0.0 0.00 0.60 0.57 98 1011.4
20260510034531 68 190 0.0 2.0 0.00 0.60 0.57 98 1011.5
20260510034031 68 190 0.0 2.0 0.00 0.60 0.57 98 1011.5
20260510033531 68 190 0.0 2.0 0.00 0.60 0.57 98 1011.6
20260510033031 68 190 1.0 3.0 0.00 0.61 0.57 98 1011.4
20260510032531 68 190 2.0 3.0 0.00 0.61 0.57 98 1011.2
20260510032031 68 189 1.0 4.0 0.00 0.63 0.57 98 1011.2
20260510031531 68 186 1.0 5.0 0.00 0.75 0.57 98 1011.3
20260510031251 68 171 3.0 5.0 0.00 0.87 0.57 98 1011.2
20260510030528 68 205 3.0 4.0 0.00 1.04 0.57 98 1011.3
20260510030030 68 219 2.0 5.0 0.00 1.07 0.57 98 1011.4
20260510025529 68 161 1.0 5.0 0.00 1.07 0.57 98 1011.4
20260510025029 68 177 2.0 7.0 0.00 1.07 0.57 98 1011.2
20260510024529 68 171 3.0 7.0 0.00 1.07 0.57 98 1011.4
20260510024029 68 169 2.0 4.0 0.00 1.07 0.57 98 1011.4
20260510023529 68 262 0.0 2.0 0.00 1.07 0.57 98 1011.4
20260510023029 68 262 1.0 2.0 0.00 1.07 0.57 99 1011.5
20260510022756 68 265 0.0 3.0 0.00 1.07 0.57 98 1012.0
20260510022029 68 265 1.0 3.0 0.00 1.07 0.57 98 1011.7
20260510021529 68 266 1.0 5.0 0.00 1.07 0.57 98 1011.2
20260510021029 68 250 2.0 5.0 0.00 1.07 0.57 98 1011.1
20260510020529 68 161 0.0 4.0 0.00 1.07 0.57 98 1010.7
20260510020029 68 161 2.0 4.0 0.00 1.07 0.57 98 1010.3
20260510015530 68 163 1.0 4.0 0.00 1.07 0.57 98 1009.9
20260510015029 68 170 0.0 5.0 0.00 1.07 0.57 98 1009.5
20260510014529 68 127 0.0 5.0 0.00 1.07 0.57 98 1009.5
20260510014029 68 140 0.0 4.0 0.00 1.07 0.57 98 1009.8
20260510013529 68 30 1.0 5.0 0.00 1.07 0.57 98 1009.7
20260510013029 68 155 2.0 5.0 0.00 1.07 0.57 98 1009.8
20260510012529 68 173 2.0 3.0 0.00 1.07 0.57 98 1010.0
20260510012028 68 173 0.0 2.0 0.00 1.07 0.57 98 1010.3
20260510011516 68 173 0.0 3.0 0.00 1.07 0.57 98 1010.4
20260510011230 68 173 2.0 3.0 0.00 1.07 0.57 98 1010.3
20260510010506 68 173 1.0 3.0 0.00 1.07 0.57 98 1010.4
20260510010230 68 161 1.0 4.0 0.00 1.07 0.57 98 1010.3
20260510005502 68 161 1.0 4.0 0.00 1.07 0.57 98 1010.1
20260510005002 68 219 2.0 4.0 0.00 1.07 0.57 98 1010.3
20260510004501 68 235 2.0 3.0 0.00 1.07 0.57 98 1010.0
20260510004001 68 148 1.0 2.0 0.00 1.07 0.57 97 1010.0
20260510003501 68 123 0.0 1.0 0.00 1.07 0.57 97 1009.9
20260510003001 68 123 0.0 1.0 0.00 1.07 0.57 97 1009.7
20260510002501 68 123 0.0 1.0 0.00 1.07 0.57 97 1009.8
20260510002001 68 123 0.0 1.0 0.00 1.07 0.57 97 1009.8
20260510001506 68 123 0.0 1.0 0.00 1.07 0.57 97 1009.9
20260510001000 68 123 0.0 1.0 0.00 1.07 0.57 97 1009.9
20260510000500 68 123 0.0 2.0 0.00 1.07 0.57 97 1009.7
20260510000000 68 123 1.0 2.0 0.00 1.07 0.57 97 1009.6
20260509235500 68 123 0.0 2.0 0.01 1.07 0.57 97 1009.8
20260509235004 68 123 0.0 1.0 0.01 1.07 0.57 97 1009.2
20260509234508 68 123 0.0 4.0 0.02 1.07 0.57 97 1008.9
20260509234504 68 123 0.0 1.0 0.01 1.07 0.57 97 1009.2
20260509233503 68 124 1.0 4.0 0.03 1.07 0.57 97 1008.8
20260509233004 68 163 0.0 4.0 0.04 1.07 0.57 97 1008.8
20260509232504 68 164 1.0 7.0 0.04 1.07 0.57 97 1009.0
20260509232003 68 128 1.0 7.0 0.04 1.07 0.57 96 1009.0
20260509231503 68 173 0.0 3.0 0.04 1.07 0.57 96 1009.5
20260509231004 68 173 1.0 3.0 0.04 1.07 0.57 96 1009.5
20260509230503 69 123 0.0 3.0 0.04 1.07 0.57 96 1009.4
20260509230003 69 123 1.0 3.0 0.04 1.03 0.57 96 1009.4
20260509225501 69 167 0.0 3.0 0.03 1.03 0.56 95 1009.4
20260509225000 69 167 0.0 3.0 0.03 1.03 0.56 95 1009.6
20260509224502 69 167 0.0 3.0 0.03 1.03 0.56 95 1009.6
20260509224004 69 166 1.0 4.0 0.02 1.03 0.55 95 1009.3
20260509223959 69 167 1.0 4.0 0.01 1.03 0.54 95 1009.4
20260509223001 69 167 1.0 3.0 0.00 1.03 0.53 95 1009.3
20260509222502 69 167 0.0 5.0 0.00 1.03 0.53 95 1009.4
20260509222001 69 167 2.0 5.0 0.00 1.03 0.53 95 1009.4
20260509221501 69 165 1.0 2.0 0.00 1.03 0.53 95 1009.4
20260509221222 69 133 0.0 5.0 0.00 1.03 0.53 95 1009.4
20260509220720 69 190 2.0 8.0 0.00 1.03 0.53 95 1009.3
20260509220225 69 175 4.0 8.0 0.00 1.03 0.53 94 1009.3
20260509215500 69 178 3.0 5.0 0.00 1.03 0.53 94 1009.2
20260509215000 69 150 2.0 6.0 0.00 1.03 0.53 94 1009.3
20260509214503 69 142 3.0 7.0 0.00 1.03 0.53 94 1009.2
20260509214003 69 156 3.0 7.0 0.00 1.03 0.53 95 1009.2
20260509213504 69 126 2.0 6.0 0.00 1.03 0.53 95 1009.3
20260509213004 69 157 2.0 7.0 0.00 1.03 0.53 95 1009.5
20260509212714 69 180 3.0 7.0 0.00 1.03 0.53 95 1009.5
20260509212212 69 162 2.0 7.0 0.00 1.03 0.53 95 1009.5
20260509211709 69 172 3.0 7.0 0.00 1.03 0.53 95 1009.7
20260509210943 69 144 4.0 7.0 0.00 1.03 0.53 95 1009.6
20260509210440 69 173 4.0 6.0 0.00 1.03 0.53 95 1009.6
20260509205936 69 166 3.0 6.0 0.00 1.03 0.53 95 1009.9
20260509205432 69 183 2.0 5.0 0.00 1.03 0.53 95 1010.0
20260509205040 69 173 2.0 5.0 0.00 1.03 0.53 95 1010.1
20260509204430 69 165 2.0 6.0 0.00 1.03 0.53 95 1009.9
20260509203929 69 168 4.0 6.0 0.00 1.03 0.53 95 1009.9
20260509203429 69 174 2.0 6.0 0.01 1.03 0.53 95 1009.6
20260509202929 69 162 3.0 6.0 0.01 1.03 0.53 95 1009.8
20260509202429 69 164 0.0 5.0 0.01 1.03 0.53 95 1009.8
20260509201930 69 163 1.0 5.0 0.01 1.03 0.53 95 1009.8
20260509201429 69 184 2.0 5.0 0.01 1.03 0.53 95 1009.7
20260509200929 69 135 1.0 4.0 0.01 1.03 0.53 94 1009.8
20260509200644 69 151 2.0 6.0 0.01 1.02 0.53 94 1009.6
20260509200628 69 161 1.0 6.0 0.01 1.03 0.53 94 1009.6
20260509195428 69 116 3.0 7.0 0.01 1.02 0.53 93 1009.8
20260509194929 69 152 2.0 7.0 0.01 1.02 0.53 93 1010.2
20260509194429 70 151 2.0 11.0 0.01 1.02 0.53 93 1010.2
20260509193931 70 172 3.0 11.0 0.01 1.02 0.53 93 1010.2
20260509193431 71 171 5.0 9.0 0.00 1.02 0.52 92 1010.1
20260509192931 71 135 2.0 7.0 0.00 1.02 0.52 92 1010.2
20260509192431 71 129 2.0 9.0 0.00 1.02 0.52 92 1010.1
20260509191931 71 94 4.0 12.0 0.00 1.02 0.52 91 1010.1
20260509191648 71 147 6.0 12.0 0.00 1.02 0.52 90 1010.5
20260509190926 72 174 5.0 10.0 0.00 1.02 0.52 90 1010.4
20260509190425 72 182 3.0 12.0 0.00 1.02 0.52 91 1010.3
20260509185918 73 138 6.0 12.0 0.00 1.02 0.52 90 1010.1
20260509185637 73 167 3.0 8.0 0.00 1.02 0.52 91 1009.7
20260509184910 73 170 3.0 5.0 0.00 1.02 0.52 92 1009.7
20260509184406 73 177 1.0 5.0 0.00 1.02 0.52 92 1009.8
20260509183904 72 205 2.0 5.0 0.00 1.02 0.52 92 1009.8
20260509183403 72 225 1.0 3.0 0.00 1.02 0.52 92 1009.9
20260509182904 72 180 1.0 5.0 0.00 1.03 0.52 92 1009.9
20260509182404 72 186 2.0 5.0 0.00 1.05 0.52 92 1009.9
20260509181904 72 128 2.0 5.0 0.00 1.06 0.52 92 1010.0
20260509181403 72 132 2.0 6.0 0.00 1.09 0.52 92 1010.0
20260509181134 72 165 2.0 6.0 0.00 1.10 0.52 92 1010.0
20260509180624 72 163 2.0 7.0 0.00 1.11 0.52 92 1009.9
20260509175903 73 190 2.0 7.0 0.00 1.11 0.52 92 1009.9
20260509175403 73 178 2.0 5.0 0.00 1.12 0.52 92 1010.0
20260509175352 73 107 0.0 2.0 0.00 1.12 0.52 92 1010.0
20260509174403 73 122 1.0 3.0 0.00 1.12 0.52 93 1009.8
20260509173900 72 129 0.0 4.0 0.00 1.12 0.52 92 1010.1
20260509173401 72 28 1.0 4.0 0.00 1.12 0.52 93 1010.0
20260509172901 72 111 1.0 3.0 0.00 1.13 0.52 93 1010.3
20260509172401 72 324 1.0 5.0 0.00 1.13 0.52 93 1010.2
20260509171901 71 136 1.0 5.0 0.00 1.14 0.52 94 1010.2
20260509171401 71 142 1.0 4.0 0.00 1.14 0.52 94 1010.3
20260509170901 71 92 1.0 2.0 0.00 1.14 0.52 95 1010.3
20260509170401 71 146 0.0 4.0 0.00 1.14 0.52 94 1010.5
20260509165900 71 145 1.0 4.0 0.00 1.14 0.52 94 1010.6
20260509165620 71 345 1.0 6.0 0.00 1.14 0.52 95 1010.8
20260509164901 70 150 1.0 6.0 0.00 1.14 0.52 95 1010.8
20260509164400 70 161 2.0 5.0 0.00 1.14 0.52 95 1010.5
20260509163901 70 153 2.0 4.0 0.00 1.14 0.52 96 1010.5
20260509163400 70 171 1.0 5.0 0.00 1.14 0.52 97 1010.7
20260509163123 70 171 1.0 5.0 0.00 1.14 0.52 97 1010.7
20260509162404 70 118 1.0 3.0 0.00 1.14 0.52 98 1010.8
20260509162124 70 190 2.0 4.0 0.00 1.14 0.52 98 1010.9
20260509161403 69 161 1.0 4.0 0.00 1.14 0.52 98 1010.8
20260509160914 69 188 1.0 3.0 0.00 1.14 0.52 99 1010.9
20260509160403 69 188 2.0 3.0 0.00 1.14 0.52 99 1010.8
20260509155903 69 197 1.0 3.0 0.00 1.14 0.52 99 1010.8
20260509155403 69 154 0.0 4.0 0.00 1.14 0.52 99 1010.8
20260509154902 69 159 0.0 4.0 0.00 1.14 0.52 100 1010.8
20260509154403 68 169 0.0 2.0 0.00 1.14 0.52 99 1010.7
20260509153903 68 169 1.0 4.0 0.00 1.14 0.52 100 1010.8
20260509153403 68 169 0.0 4.0 0.00 1.14 0.52 99 1010.8
20260509152904 68 132 1.0 3.0 0.00 1.14 0.52 99 1010.7
20260509152625 68 140 1.0 3.0 0.00 1.14 0.52 99 1010.6
20260509151903 68 138 0.0 3.0 0.00 1.14 0.52 100 1010.6
20260509151403 68 138 1.0 3.0 0.00 1.14 0.52 100 1010.3
20260509151122 68 138 2.0 3.0 0.00 1.14 0.52 100 1010.4
20260509150403 68 142 0.0 3.0 0.00 1.14 0.52 100 1010.3
20260509150125 68 142 1.0 3.0 0.00 1.14 0.52 100 1010.4
20260509145403 68 169 0.0 2.0 0.00 1.14 0.52 100 1010.4
20260509144402 67 169 0.0 4.0 0.00 1.14 0.52 100 1010.2
20260509143903 67 171 1.0 4.0 0.00 1.14 0.52 100 1010.3
20260509143401 67 196 0.0 3.0 0.00 1.14 0.52 100 1010.2
20260509142901 67 90 1.0 3.0 0.00 1.14 0.52 100 1010.3
20260509142401 67 84 1.0 3.0 0.00 1.14 0.52 100 1010.2
20260509141901 67 76 0.0 2.0 0.00 1.14 0.52 100 1010.2
20260509141401 67 76 1.0 2.0 0.00 1.14 0.52 100 1010.0
20260509140901 67 80 1.0 2.0 0.00 1.14 0.52 100 1010.1
20260509140401 67 84 0.0 2.0 0.00 1.14 0.52 100 1010.1
20260509135901 67 84 1.0 2.0 0.00 1.14 0.52 100 1010.2
20260509135401 67 84 0.0 3.0 0.00 1.14 0.52 100 1010.2
20260509134900 66 184 0.0 3.0 0.00 1.14 0.52 100 1010.2
20260509134401 66 199 0.0 3.0 0.00 1.14 0.52 100 1010.2
20260509133901 66 200 1.0 3.0 0.00 1.14 0.52 100 1010.0
20260509133400 66 297 0.0 1.0 0.00 1.14 0.52 100 1009.8
20260509132900 66 297 0.0 1.0 0.00 1.14 0.52 100 1010.0
20260509132404 66 297 0.0 1.0 0.00 1.14 0.52 100 1009.9
20260509131904 66 297 0.0 0.0 0.00 1.48 0.52 100 1009.9
20260509131403 66 297 0.0 0.0 0.00 1.48 0.52 100 1009.9
20260509130903 66 297 0.0 0.0 0.00 1.48 0.52 100 1009.8
20260509130402 66 297 0.0 0.0 0.00 1.48 0.52 100 1009.6
20260509125903 66 297 0.0 1.0 0.00 1.50 0.52 100 1009.5
20260509125623 66 297 0.0 2.0 0.00 1.50 0.52 100 1009.4
20260509124903 65 297 0.0 2.0 0.00 1.50 0.52 100 1009.4
20260509124403 65 297 0.0 2.0 0.00 1.50 0.52 100 1009.3
20260509123905 65 297 0.0 2.0 0.00 1.50 0.52 100 1009.2
20260509123859 65 298 0.0 2.0 0.00 1.50 0.52 100 1009.2
20260509122903 65 298 0.0 2.0 0.00 1.50 0.52 100 1009.4
20260509122402 65 298 0.0 1.0 0.04 1.50 0.52 100 1009.5
20260509121903 65 298 0.0 2.0 0.10 1.50 0.52 100 1009.5
20260509121403 65 298 0.0 2.0 0.16 1.50 0.52 99 1009.6
20260509120903 65 298 0.0 2.0 0.17 1.50 0.52 99 1009.4
20260509120404 65 298 1.0 2.0 0.22 1.50 0.52 99 1009.6
20260509120125 65 22 0.0 2.0 0.31 1.20 0.52 100 1009.7
20260509115402 65 22 0.0 1.0 0.32 1.20 0.52 99 1009.6
20260509114904 65 22 0.0 1.0 0.37 1.20 0.52 99 1009.6
20260509114403 65 22 0.0 1.0 0.38 1.20 0.52 99 1009.9
20260509113903 65 22 0.0 1.0 0.39 1.20 0.52 99 1009.9
20260509113403 65 22 0.0 1.0 0.42 1.20 0.52 99 1009.9
20260509112903 65 22 0.0 1.0 0.43 1.20 0.52 99 1009.9
20260509112400 65 22 0.0 2.0 0.39 1.20 0.47 99 1010.0
20260509111901 65 21 0.0 3.0 0.34 1.20 0.41 99 1010.0
20260509111402 65 13 0.0 3.0 0.29 1.20 0.36 99 1010.0
20260509110901 65 319 1.0 5.0 0.28 1.20 0.34 99 1010.0
20260509110401 65 46 2.0 5.0 0.23 1.20 0.28 99 1009.5
20260509105901 65 333 1.0 4.0 0.15 1.04 0.20 99 1010.3
20260509105401 65 37 2.0 4.0 0.14 1.04 0.19 99 1010.1
20260509105127 65 317 2.0 9.0 0.09 1.04 0.15 99 1009.8
20260509104401 65 66 4.0 9.0 0.08 1.04 0.14 99 1010.0
20260509103900 65 26 2.0 4.0 0.07 1.04 0.13 99 1010.4
20260509103401 66 255 1.0 9.0 0.04 1.04 0.09 99 1010.1
20260509102900 66 82 2.0 9.0 0.03 1.04 0.09 99 1009.9
20260509102401 66 341 4.0 10.0 0.02 1.04 0.08 99 1010.2
20260509101901 67 23 2.0 13.0 0.02 1.04 0.08 100 1010.1
20260509101401 68 0 5.0 13.0 0.01 1.04 0.07 100 1010.1
20260509100902 68 144 0.0 2.0 0.01 1.04 0.07 100 1009.9
20260509100401 68 146 1.0 2.0 0.01 1.04 0.07 100 1009.4
20260509100123 68 146 0.0 0.0 0.00 1.04 0.06 100 1009.1
20260509095401 68 146 0.0 1.0 0.00 1.04 0.06 100 1009.0
20260509094901 69 146 0.0 1.0 0.00 1.04 0.06 100 1008.8
20260509094401 68 146 0.0 1.0 0.00 1.04 0.06 100 1009.0
20260509093901 68 146 0.0 1.0 0.00 1.04 0.06 100 1008.8